Location: Newark
(45.6439°N, 0.5436°E)
Time: 10:56:07
(UTC+00:00)

N. Korean satellite - Pass Details

Date: 29 November 2019
Orbit: 456 x 506 km, 97.2° (Epoch: 08 December)

Event Time Altitude Azimuth Distance (km) Brightness Sun altitude
Rises 17:10:18 0° 175° (S) 2,586 10.5 -9.3°
Reaches altitude 10° 17:12:24 10° 179° (S) 1,711 9.6 -9.6°
Maximum altitude 17:16:03 59° 260° (W) 590 7.3 -10.2°
Drops below altitude 10° 17:19:44 10° 340° (NNW) 1,732 9.4 -10.8°
Sets 17:21:52 0° 345° (NNW) 2,621 10.2 -11.2°
